Regional Weather Roundup
Issued by NWS San Diego, CA

Home | Current Version | Previous Version | Text Only | Print | Product List | Glossary On
Versions: 1 2 3 4 5 6 7 8 9 10 11 12 13 14 15 16 17 18 19 20 21 22 23 24 25 26 27 28 29 30 31 32 33 34 35 36 37 38 39 40 41 42 43 44 45 46 47 48 49 50
000
ASUS46 KSGX 060311
RWRSGX

SAN DIEGO HOURLY WEATHER ROUNDUP
NATIONAL WEATHER SERVICE SAN DIEGO CA
700 PM PST THU MAR 05 2015

NOTE: "FAIR" INDICATES FEW OR NO CLOUDS BELOW 12,000 FEET WITH NO
SIGNIFICANT WEATHER AND/OR OBSTRUCTIONS TO VISIBILITY.

CAZ042-043-060-061-PZZ750-775-060400-

GREATER SAN DIEGO AREA

CITY           SKY/WX    TMP DP  RH WIND       PRES   REMARKS
LINDBERGH FLD  CLEAR     66  29  24 N9        30.16R
NATIONAL CITY    N/A     67  32  27 CALM      30.15R
CHULA VISTA      N/A     66  36  32 CALM      30.08R
IMPERIAL BEACH PTCLDY    64  38  38 NW5       30.15R
BROWN FIELD    CLEAR     55  37  50 SW5       30.15R
MIRAMAR MCAS   CLEAR     64  25  22 N9        30.15S
MONTGOMERY FLD CLEAR     64  31  28 N12       30.15R

$$

NORTH SAN DIEGO COUNTY

CITY           SKY/WX    TMP DP  RH WIND       PRES   REMARKS
CAMP PENDLETON CLEAR     60  33  36 CALM      30.15R
OCEANSIDE AP   CLEAR     59  32  36 CALM      30.14S
OCEANSIDE HBR    N/A     63  43  48 NE2       30.17S
VISTA            N/A     59  40  50 CALM      30.15S
CARLSBAD       CLEAR     63  42  46 CALM      30.15S
DEL MAR          N/A     61  40  45 CALM      30.18R
LA JOLLA SCRIP   N/A     63  35  34 CALM      30.14R
FALLBROOK        N/A     63  31  30 CALM      30.15S
ESCONDIDO        N/A     65  35  33 CALM      30.17S
SAN MARCOS       N/A     64  33  32 CALM      30.15R
POWAY            N/A     62  36  39 CALM      30.18R

$$

EAST SAN DIEGO COUNTY

CITY           SKY/WX    TMP DP  RH WIND       PRES   REMARKS
RAMONA         CLEAR     56  24  29 CALM      30.18R
SANTEE LAKES     N/A     63  31  30 CALM      30.16R
LA MESA          N/A     64  34  32 CALM      30.09R
JAMUL            N/A     63  25  23 E5        30.16R
DESCANSO N       N/A     53  21  28 E24       30.09R
MT. LAGUNA OBS   N/A     40  11  29 N24       29.79S WCI  30
CAMPO            N/A     51  20  29 NE13      30.16S

$$

ORANGE COUNTY AND THE LOS ANGELES BASIN

CITY           SKY/WX    TMP DP  RH WIND       PRES   REMARKS
JOHN WAYNE AP  CLEAR     69  34  27 CALM      30.16R
LAKE FOREST FR   N/A     61  31  31 CALM      30.08R
SANTA ANA        N/A     66  31  26 CALM      30.11S
HUNTINGTON BCH   N/A     66  33  30 CALM      30.18R
LOS ALAMITOS   CLEAR     66  25  21 NW6       30.16R
FULLERTON      CLEAR     68  18  14 NW5       30.15R
LONG BEACH     CLEAR     65  30  27 NW10      30.16R
L.A. AP        CLEAR     63  35  35 W13       30.17F
L.A. DOWNTOWN  CLEAR     65  28  24 NW3       30.17S

$$

THE INLAND EMPIRE

CITY           SKY/WX    TMP DP  RH WIND       PRES   REMARKS
CORONA         CLEAR     53  35  50 CALM      30.18R
CHINO          CLEAR     61  35  37 VRB3      30.18R
ONTARIO        CLEAR     63  31  30 N6        30.17S
RIVERSIDE AP   CLEAR     65  14  14 E6        30.18R
RIV CYN CREST    N/A     66  38  34 S5          N/A
MORENO VALLEY    N/A     63  28  26 E6        29.38R
MARCH ARB      CLEAR     64  17  16 VRB1      30.19R
HORSETHIEF CYN   N/A     56  25  30 SW5       30.18R
PERRIS           N/A     65  20  17 E6          N/A
MENIFEE          N/A     62  32  31 E1        30.26R
HEMET EAST       N/A     58  14  18 CALM      30.20S
FRENCH VALLEY  FAIR      61  27  27 CALM      30.19R
TEMECULA         N/A     66  25  21 NE7       30.13R

$$

SAN BERNARDINO AND RIVERSIDE COUNTY MOUNTAINS

CITY           SKY/WX    TMP DP  RH WIND       PRES   REMARKS
BIG BEAR AP    CLEAR     30  12  47 CALM      30.36S
PINE COVE        N/A     42  20  41 CALM      30.28R

$$

SOUTHERN DESERT INCLUDING THE COACHELLA VALLEY

CITY           SKY/WX    TMP DP  RH WIND       PRES   REMARKS
PALM SPRINGS   CLEAR     70  18  13 W5        30.22R
THOUSAND PALMS   N/A     68  29  23 SW1       30.20
PALM DESERT      N/A     68  32  26 CALM      29.18S
THERMAL        CLEAR     61  32  33 N3        30.17R
BLYTHE         CLEAR     63  38  39 N9        30.19S
IMPERIAL AP    CLEAR     61  36  39 W3        30.17R
EL CENTRO NAS  CLEAR     64  30  27 W5        30.17S
YUMA AZ        CLEAR     68  29  23 N12       30.15S
MEXICALI       CLEAR     64  34  32 NW7       30.18

$$

UPPER DESERT

CITY           SKY/WX    TMP DP  RH WIND       PRES   REMARKS
VICTORVILLE AP CLEAR     54   7  15 NE6       30.29R
HESPERIA         N/A     55  13  18 N2        30.45R
APPLE VALLEY     N/A     58   8  14 NE2       30.29R
PALMDALE       CLEAR     50  22  33 SE8       30.28R
LANCASTER      CLEAR     50  23  34 N8        30.28R
EDWARDS AFB    CLEAR     56  22  26 NE7       30.27R
DAGGETT        CLEAR     57  17  21 S3        30.28R
29 PALMS N     CLEAR     58  25  28 W5        30.33R
NEEDLES        CLEAR     63  22  20 N9        30.23R

$$

REGIONAL REPORTS

CITY           SKY/WX    TMP DP  RH WIND       PRES   REMARKS
SANTA BARBARA  CLEAR     60  38  43 W3        30.19S
SANDBERG       CLEAR     52  16  24 E16       30.30S
MT. WILSON       N/A     43   5  21 MISG        N/A
LAS VEGAS NV   CLEAR     60  23  24 S6        30.27R
PHOENIX AZ     CLEAR     66  31  27 SW3       30.16R
TIJUANA        CLEAR     63  37  39 NW6       30.17R
ENSENADA NW      N/A     60  32  34 NE8       30.12R

$$

OFFSHORE ISLANDS

CITY           SKY/WX    TMP DP  RH WIND       PRES   REMARKS
CATALINA ARPT  CLEAR     58  20  22 NW12      30.20S
SAN NICOLAS IS CLEAR     32  32 100 W12       30.19S WCI  23

$$

MARINE AND OFFSHORE BUOY REPORTS

STATION/POSITION SKY/WX   TEMP    WIND        PRES    SWELL
                          AIR SEA DIR/SP/G            HT/PER/DIR
                          (F)     (DEG/KT/KT) (MB)    (FT/S/D)
TANNER BANKS               61 62  360/  8/ 10 1021.4S   5/210/14
S CLEMENTE BASIN           62 62  320/ 10/ 12 1020.6R   3/210/15
SAN NICOLAS IS.               60                N/A     3/220/13
SO. S. ROSA ISLA           61 62  330/ 10/ 12 1022.0S   3/15
W. S. BARBARA CH           60 60  320/ 10/ 12 1022.3F   3/210/15
S. MONICA BASIN            62 62  320/ 10/ 12 1022.3S   3/210/15
S PEDRO CHANNEL               62                N/A     2/170/15
DANA POINT                    62                N/A     3/190/15
CMP PENDLETON NS              62                N/A     2/220/15
OCEANSIDE OFFSHR              62                N/A     3/190/15
TORREY PINES OTR              63                N/A     3/200/14
LA JOLLA 1                 63 63   10/ 10/ 10 1021.0F
MISSION BAY BUOY              62                N/A     2/200/14
SAN DIEGO BAY                 65              1021.0S
POINT LOMA SOUTH              63                N/A     3/190/15

$$




USA.gov is the U.S. government's official web portal to all federal, state and local government web resources and services.